T 2000 Dec. 26.55920 TT Muraoka q 0.3211453 (2000.0) P Q Peri. 51.50482 +0.74891591 -0.65963374 Node 10.75593 -0.66266175 -0.74578787 e 1.0 Incl. 160.16936 +0.00209144 -0.09318682 From 56 observations 2000 Nov. 26-Dec. 6, mean residual 0".75.
m1 = 10.5 + 5 logΔ + 10.0 log r [ , 0] ( 〜2000年12月26日) m1 = 13.0 + 5 logΔ + 15.0 log r [ 0,45] (2000年12月26日〜2001年 2月 9日) m1 = 9.0 + 5 logΔ + 80 log r [45, ] (2001年 2月 9日〜 ) ※ 灰色の曲線は、m1 = 13.0 + 5 logΔ + 15.0 log r の光度曲線です。